Location: Augirein
(42.9320°N, 0.9181°E)
Time: 17:09:53
(UTC+00:00)

Aureole 3 Rocket - Pass Details

Date: 20 June 2021
Orbit: 399 x 1738 km, 82.5° (Epoch: 03 August)

Event Time Altitude Azimuth Distance (km) Brightness Sun altitude
Rises 02:21:01 0° 340° (NNW) 2,672 6.9 -15.9°
Reaches altitude 10° 02:23:02 10° 331° (NNW) 1,905 5.9 -15.7°
Maximum altitude 02:26:49 35° 265° (W) 1,138 4.1 -15.3°
Enters shadow 02:29:08 23° 219° (SW) 1,605 4.5 -15.1°
